This is the latest recevied weather packets stored in our database for station/object KB4RFE. If no packets are shown the sender has not sent any weather packets the latest 10 day(s).
| Time | Temp. | Humidity | Pressure | Rain* | Wind** | Luminosity | Snow |
|---|---|---|---|---|---|---|---|
| 1777469483 | 19.44° C | 98% | 1019.3 hPa | 0 mm | - | 63 W/m² | - |
| 1777469182 | 20° C | 98% | 1019.2 hPa | 0 mm | - | 76 W/m² | - |
| 1777468877 | 19.44° C | 98% | 1019.3 hPa | 0.51 mm | - | 87 W/m² | - |
| 1777468574 | 19.44° C | 98% | 1019.3 hPa | 0.51 mm | - | 87 W/m² | - |
| 1777468271 | 19.44° C | 98% | 1019.2 hPa | 0 mm | - | 88 W/m² | - |
| 1777467967 | 19.44° C | 98% | 1019.2 hPa | 0.51 mm | - | 53 W/m² | - |
| 1777467663 | 19.44° C | 98% | 1019.3 hPa | 0.51 mm | - | 44 W/m² | - |
| 1777467358 | 19.44° C | 98% | 1019.6 hPa | 0 mm | - | 64 W/m² | - |
| 1777467054 | 19.44° C | 98% | 1019.4 hPa | 0 mm | - | 47 W/m² | - |
| 1777466751 | 19.44° C | 98% | 1019.5 hPa | 0 mm | - | 44 W/m² | - |
| 1777466449 | 19.44° C | 98% | 1019.6 hPa | 0 mm | - | 38 W/m² | - |
| 1777466145 | 19.44° C | 98% | 1019.5 hPa | 0.51 mm | - | 41 W/m² | - |
| 1777465841 | 19.44° C | 98% | 1019.3 hPa | 0.51 mm | - | 42 W/m² | - |
| 1777465537 | 19.44° C | 98% | 1019.2 hPa | 0.51 mm | - | 33 W/m² | - |
| 1777465232 | 19.44° C | 98% | 1019.4 hPa | 0.51 mm | - | 24 W/m² | - |
| 1777464927 | 18.89° C | 98% | 1019.4 hPa | 0 mm | - | 22 W/m² | - |
| 1777464622 | 18.89° C | 98% | 1019.3 hPa | 1.27 mm | - | 18 W/m² | - |
| 1777464319 | 18.89° C | 98% | 1019 hPa | 1.78 mm | - | 15 W/m² | - |
| 1777464014 | 18.89° C | 98% | 1019 hPa | 1.27 mm | - | 12 W/m² | - |
| 1777463709 | 18.89° C | 98% | 1019 hPa | 1.27 mm | - | 6 W/m² | - |
| 1777463405 | 18.89° C | 98% | 1019 hPa | 0.51 mm | - | 17 W/m² | - |
| 1777463101 | 18.89° C | 98% | 1018.9 hPa | 0 mm | - | 3 W/m² | - |
| 1777462796 | 18.89° C | 98% | 1018.9 hPa | 0 mm | - | 20 W/m² | - |
| 1777462491 | 18.89° C | 98% | 1018.8 hPa | 0.51 mm | - | 19 W/m² | - |
| 1777462189 | 18.89° C | 98% | 1018.8 hPa | 0.51 mm | - | 11 W/m² | - |
* Rain latest hour (hover to see other rain measurements)
** Current wind speed in m/s (hover to see current wind gust speed)